QPF
0.04 0.03 0.03 0.02 0.02 0.01 0.02 0.03 0.03 0.03 0.02 0.02 0.03 0.03 0.04 0.03 0.02 0.02 0.02 0.03 0.02 0.02 0.02 0.02 0.03 0.03 0.03 0.03 0.02 0.01 0.01 0.02 0.02 0.02 0.03 0.03 0.02 0.02
0.05 0.04 0.03 0.03 0.02 0.02 0.02 0.02 0.03 0.03 0.02 0.02 0.02 0.02 0.03 0.02 0.03 0.02 0.02 0.02 0.02 0.02 0.01 0.01 0.01 0.01 0.01 0.02 0.02 0.01 0.01 0.01 0.01 0.02 0.02 0.02 0.02 0.02
0.06 0.05 0.05 0.04 0.03 0.03 0.02 0.02 0.02 0.02 0.02 0.02 0.01 0.01 0.02 0.03 0.03 0.03 0.03 0.02 0.01 0.01 0.01 0.01 0.01 0.00 0.00 0.01 0.01 0.01 0.01 0.01 0.01 0.02 0.02 0.02 0.01 0.01
0.05 0.05 0.05 0.04 0.04 0.04 0.04 0.04 0.03 0.03 0.03 0.02 0.02 0.02 0.02 0.02 0.02 0.03 0.02 0.02 0.01 0.01 0.01 0.01 0.01 0.00 0.00 0.00 0.00 0.00 0.00 0.01 0.01 0.01 0.01 0.02 0.02 0.02
0.03 0.04 0.04 0.04 0.04 0.05 0.05 0.05 0.05 0.05 0.05 0.04 0.03 0.03 0.03 0.03 0.02 0.02 0.02 0.02 0.01 0.01 0.01 0.01 0.01 0.00 0.00 0.00 0.00 0.00 0.00 0.00 0.00 0.00 0.01 0.01 0.01 0.02
0.02 0.02 0.02 0.03 0.03 0.03 0.04 0.05 0.05 0.04 0.04 0.04 0.04 0.03 0.02 0.02 0.03 0.03 0.02 0.02 0.01 0.01 0.01 0.01 0.01 0.00 0.00 0.00 0.00 0.00 0.00 0.00 0.00 0.00 0.00 0.00 0.00 0.00
0.02 0.01 0.01 0.02 0.02 0.03 0.03 0.03 0.04 0.04 0.04 0.04 0.03 0.03 0.02 0.03 0.03 0.02 0.02 0.02 0.01 0.01 0.01 0.01 0.01 0.00 0.00 0.00 0.00 0.00 0.00 0.00 0.00 0.00 0.00 0.00 0.00 0.00
0.01 0.01 0.01 0.01 0.02 0.02 0.02 0.02 0.03 0.03 0.03 0.03 0.03 0.02 0.02 0.02 0.02 0.03 0.02 0.02 0.02 0.01 0.01 0.01 0.00 0.00 0.00 0.00 0.00 0.00 0.00 0.00 0.00 0.00 0.00 0.00 0.00 0.00
0.01 0.01 0.01 0.01 0.01 0.01 0.02 0.02 0.02 0.03 0.03 0.03 0.03 0.02 0.02 0.02 0.02 0.02 0.02 0.02 0.01 0.01 0.01 0.01 0.01 0.00 0.00 0.00 0.00 0.00 0.00 0.00 0.01 0.00 0.00 0.00 0.00 0.00
0.01 0.01 0.01 0.01 0.02 0.02 0.02 0.02 0.02 0.02 0.02 0.02 0.02 0.02 0.01 0.02 0.02 0.01 0.01 0.02 0.01 0.01 0.01 0.01 0.01 0.01 0.01 0.00 0.00 0.00 0.00 0.00 0.00 0.00 0.00 0.00 0.00 0.00
0.01 0.01 0.01 0.01 0.02 0.02 0.02 0.02 0.02 0.02 0.02 0.02 0.02 0.01 0.01 0.02 0.02 0.02 0.02 0.02 0.02 0.01 0.01 0.01 0.01 0.01 0.01 0.01 0.01 0.01 0.00 0.00 0.00 0.00 0.00 0.00 0.00 0.00
0.01 0.01 0.02 0.02 0.02 0.02 0.02 0.02 0.02 0.02 0.01 0.01 0.01 0.01 0.01 0.01 0.01 0.02 0.02 0.02 0.02 0.01 0.01 0.01 0.01 0.01 0.01 0.01 0.00 0.00 0.00 0.00 0.00 0.00 0.00 0.00 0.00 0.00
0.01 0.01 0.02 0.02 0.02 0.02 0.02 0.02 0.02 0.02 0.02 0.01 0.01 0.01 0.01 0.01 0.01 0.01 0.02 0.02 0.02 0.02 0.01 0.01 0.02 0.01 0.02 0.01 0.01 0.00 0.00 0.00 0.00 0.00 0.00 0.00 0.00 0.01
0.02 0.02 0.01 0.02 0.02 0.02 0.02 0.02 0.02 0.02 0.02 0.02 0.01 0.01 0.01 0.01 0.01 0.01 0.02 0.02 0.02 0.02 0.02 0.02 0.03 0.03 0.03 0.02 0.01 0.01 0.01 0.00 0.00 0.00 0.00 0.01 0.01 0.01
0.02 0.02 0.01 0.01 0.01 0.01 0.01 0.01 0.02 0.02 0.02 0.02 0.01 0.01 0.01 0.01 0.02 0.02 0.02 0.02 0.03 0.02 0.02 0.03 0.03 0.03 0.03 0.03 0.02 0.01 0.01 0.00 0.00 0.00 0.01 0.01 0.00 0.00
0.01 0.01 0.01 0.01 0.01 0.01 0.01 0.01 0.01 0.02 0.02 0.02 0.02 0.01 0.01 0.01 0.02 0.03 0.03 0.03 0.03 0.03 0.03 0.03 0.03 0.03 0.04 0.03 0.03 0.02 0.02 0.01 0.01 0.00 0.01 0.01 0.01 0.00
0.01 0.01 0.01 0.01 0.01 0.01 0.01 0.01 0.01 0.01 0.02 0.02 0.02 0.02 0.01 0.01 0.02 0.03 0.03 0.04 0.04 0.04 0.03 0.03 0.03 0.04 0.04 0.04 0.04 0.03 0.02 0.01 0.01 0.01 0.01 0.01 0.01 0.01
0.01 0.01 0.01 0.01 0.01 0.01 0.01 0.01 0.01 0.01 0.01 0.02 0.02 0.02 0.02 0.02 0.02 0.02 0.03 0.04 0.05 0.04 0.04 0.03 0.04 0.04 0.04 0.04 0.03 0.03 0.02 0.02 0.01 0.01 0.02 0.02 0.01 0.01
0.02 0.02 0.02 0.02 0.02 0.01 0.01 0.01 0.01 0.01 0.02 0.02 0.02 0.03 0.03 0.03 0.02 0.03 0.03 0.04 0.05 0.05 0.04 0.04 0.04 0.05 0.06 0.04 0.02 0.02 0.02 0.02 0.02 0.02 0.02 0.02 0.02 0.02
0.02 0.02 0.02 0.02 0.02 0.02 0.02 0.02 0.02 0.02 0.02 0.02 0.02 0.02 0.03 0.03 0.03 0.03 0.03 0.04 0.05 0.05 0.05 0.05 0.05 0.05 0.06 0.05 0.04 0.02 0.02 0.03 0.03 0.03 0.02 0.02 0.02 0.02
0.02 0.02 0.02 0.02 0.02 0.02 0.02 0.02 0.02 0.02 0.02 0.02 0.02 0.02 0.03 0.04 0.04 0.04 0.04 0.04 0.05 0.05 0.05 0.04 0.04 0.04 0.05 0.06 0.06 0.04 0.03 0.03 0.04 0.04 0.03 0.03 0.03 0.02
0.02 0.02 0.02 0.02 0.02 0.02 0.02 0.02 0.02 0.02 0.02 0.02 0.02 0.02 0.03 0.03 0.04 0.04 0.04 0.05 0.04 0.04 0.04 0.04 0.04 0.04 0.05 0.06 0.05 0.03 0.03 0.03 0.03 0.03 0.03 0.04 0.04 0.04
0.02 0.02 0.02 0.02 0.02 0.02 0.02 0.02 0.02 0.02 0.02 0.02 0.02 0.03 0.03 0.03 0.04 0.04 0.04 0.04 0.04 0.05 0.05 0.04 0.04 0.04 0.04 0.05 0.05 0.04 0.03 0.03 0.02 0.03 0.03 0.02 0.02 0.02
MSLP
1022.71 1023.15 1023.54 1023.86 1024.08 1024.23 1024.29 1024.31 1024.28 1024.22 1024.14 1024.04 1023.91 1023.76 1023.56 1023.34 1023.09 1022.83 1022.55 1022.27 1021.98 1021.68 1021.37 1021.04 1020.68 1020.28 1019.87 1019.43 1019.00 1018.59 1018.22 1017.90 1017.63 1017.40 1017.21 1017.04 1016.88 1016.71
1022.95 1023.38 1023.75 1024.06 1024.30 1024.46 1024.56 1024.60 1024.62 1024.59 1024.54 1024.44 1024.30 1024.10 1023.85 1023.56 1023.23 1022.88 1022.53 1022.19 1021.86 1021.53 1021.21 1020.87 1020.50 1020.10 1019.66 1019.20 1018.72 1018.27 1017.84 1017.47 1017.16 1016.90 1016.69 1016.52 1016.37 1016.21
1023.20 1023.60 1023.96 1024.25 1024.48 1024.65 1024.78 1024.86 1024.91 1024.92 1024.88 1024.79 1024.64 1024.40 1024.10 1023.74 1023.34 1022.92 1022.49 1022.09 1021.71 1021.35 1020.99 1020.64 1020.25 1019.83 1019.37 1018.88 1018.36 1017.86 1017.39 1016.97 1016.62 1016.34 1016.12 1015.94 1015.80 1015.66
1023.45 1023.82 1024.15 1024.42 1024.64 1024.81 1024.95 1025.06 1025.14 1025.17 1025.16 1025.07 1024.90 1024.65 1024.30 1023.88 1023.41 1022.92 1022.43 1021.97 1021.53 1021.13 1020.75 1020.36 1019.96 1019.51 1019.03 1018.50 1017.95 1017.40 1016.89 1016.43 1016.05 1015.74 1015.51 1015.33 1015.20 1015.08
1023.70 1024.03 1024.32 1024.56 1024.77 1024.94 1025.09 1025.21 1025.30 1025.35 1025.34 1025.26 1025.08 1024.80 1024.42 1023.96 1023.44 1022.89 1022.35 1021.83 1021.35 1020.91 1020.49 1020.07 1019.64 1019.17 1018.65 1018.09 1017.51 1016.93 1016.38 1015.89 1015.48 1015.15 1014.90 1014.72 1014.59 1014.49
1023.92 1024.22 1024.47 1024.69 1024.87 1025.03 1025.17 1025.29 1025.39 1025.44 1025.43 1025.34 1025.15 1024.84 1024.44 1023.95 1023.39 1022.81 1022.23 1021.67 1021.16 1020.68 1020.23 1019.78 1019.32 1018.82 1018.28 1017.69 1017.08 1016.47 1015.89 1015.37 1014.93 1014.58 1014.32 1014.13 1014.00 1013.90
1024.12 1024.37 1024.59 1024.78 1024.94 1025.08 1025.20 1025.31 1025.39 1025.43 1025.40 1025.30 1025.09 1024.77 1024.35 1023.84 1023.28 1022.67 1022.07 1021.49 1020.95 1020.45 1019.98 1019.51 1019.02 1018.50 1017.93 1017.32 1016.69 1016.05 1015.45 1014.90 1014.43 1014.05 1013.77 1013.56 1013.42 1013.33
1024.27 1024.49 1024.68 1024.83 1024.97 1025.08 1025.18 1025.26 1025.31 1025.32 1025.27 1025.14 1024.92 1024.59 1024.16 1023.65 1023.08 1022.48 1021.88 1021.29 1020.75 1020.23 1019.74 1019.25 1018.74 1018.20 1017.61 1016.98 1016.33 1015.67 1015.03 1014.46 1013.96 1013.56 1013.24 1013.02 1012.86 1012.75
1024.37 1024.56 1024.72 1024.86 1024.96 1025.04 1025.10 1025.13 1025.14 1025.11 1025.03 1024.87 1024.63 1024.29 1023.87 1023.36 1022.81 1022.23 1021.64 1021.07 1020.52 1020.00 1019.50 1019.00 1018.47 1017.91 1017.31 1016.66 1015.98 1015.30 1014.65 1014.04 1013.52 1013.08 1012.73 1012.47 1012.29 1012.17
1024.44 1024.60 1024.74 1024.84 1024.91 1024.95 1024.96 1024.95 1024.91 1024.83 1024.70 1024.51 1024.25 1023.91 1023.49 1023.01 1022.48 1021.92 1021.36 1020.80 1020.27 1019.75 1019.24 1018.73 1018.19 1017.61 1016.98 1016.32 1015.62 1014.92 1014.25 1013.62 1013.07 1012.60 1012.22 1011.94 1011.73 1011.59
1024.47 1024.62 1024.73 1024.80 1024.83 1024.83 1024.79 1024.71 1024.61 1024.47 1024.30 1024.07 1023.79 1023.45 1023.05 1022.59 1022.09 1021.56 1021.03 1020.49 1019.97 1019.45 1018.93 1018.40 1017.84 1017.24 1016.60 1015.92 1015.21 1014.49 1013.80 1013.16 1012.59 1012.10 1011.70 1011.40 1011.17 1011.03
1024.49 1024.62 1024.70 1024.74 1024.73 1024.67 1024.56 1024.43 1024.26 1024.07 1023.85 1023.60 1023.30 1022.96 1022.57 1022.13 1021.66 1021.16 1020.65 1020.13 1019.60 1019.08 1018.54 1017.99 1017.40 1016.78 1016.12 1015.42 1014.70 1013.98 1013.29 1012.64 1012.06 1011.56 1011.16 1010.85 1010.63 1010.48
1024.49 1024.60 1024.65 1024.65 1024.58 1024.46 1024.30 1024.10 1023.88 1023.63 1023.37 1023.09 1022.79 1022.44 1022.07 1021.65 1021.20 1020.73 1020.22 1019.70 1019.17 1018.62 1018.06 1017.47 1016.85 1016.20 1015.52 1014.81 1014.08 1013.36 1012.67 1012.03 1011.46 1010.98 1010.59 1010.29 1010.09 1009.97
1024.46 1024.54 1024.56 1024.50 1024.39 1024.21 1023.99 1023.73 1023.46 1023.17 1022.88 1022.58 1022.27 1021.94 1021.57 1021.17 1020.74 1020.27 1019.76 1019.22 1018.66 1018.08 1017.47 1016.84 1016.18 1015.49 1014.78 1014.06 1013.34 1012.63 1011.96 1011.35 1010.81 1010.35 1010.00 1009.74 1009.57 1009.49
1024.37 1024.42 1024.40 1024.30 1024.13 1023.90 1023.62 1023.32 1023.01 1022.70 1022.39 1022.09 1021.78 1021.45 1021.10 1020.71 1020.28 1019.80 1019.28 1018.70 1018.10 1017.46 1016.79 1016.10 1015.40 1014.67 1013.95 1013.22 1012.50 1011.82 1011.18 1010.60 1010.11 1009.70 1009.39 1009.18 1009.07 1009.04
1024.20 1024.21 1024.14 1024.00 1023.79 1023.52 1023.21 1022.88 1022.55 1022.22 1021.92 1021.62 1021.32 1021.01 1020.67 1020.29 1019.85 1019.35 1018.79 1018.17 1017.51 1016.80 1016.07 1015.32 1014.56 1013.80 1013.05 1012.32 1011.62 1010.96 1010.36 1009.84 1009.40 1009.05 1008.80 1008.65 1008.59 1008.61
1023.91 1023.89 1023.79 1023.61 1023.37 1023.07 1022.74 1022.40 1022.08 1021.77 1021.48 1021.20 1020.93 1020.64 1020.31 1019.92 1019.47 1018.95 1018.34 1017.67 1016.94 1016.16 1015.36 1014.55 1013.74 1012.94 1012.18 1011.45 1010.77 1010.15 1009.60 1009.13 1008.75 1008.45 1008.26 1008.17 1008.16 1008.23
1023.51 1023.45 1023.32 1023.13 1022.87 1022.57 1022.25 1021.92 1021.62 1021.34 1021.08 1020.84 1020.60 1020.33 1020.02 1019.63 1019.17 1018.61 1017.96 1017.23 1016.44 1015.60 1014.73 1013.87 1013.02 1012.20 1011.42 1010.71 1010.05 1009.47 1008.97 1008.55 1008.22 1007.99 1007.84 1007.79 1007.82 1007.93
1022.99 1022.91 1022.77 1022.57 1022.32 1022.03 1021.74 1021.45 1021.18 1020.95 1020.74 1020.54 1020.34 1020.10 1019.80 1019.42 1018.94 1018.36 1017.67 1016.90 1016.06 1015.17 1014.26 1013.35 1012.48 1011.65 1010.88 1010.19 1009.57 1009.03 1008.57 1008.20 1007.92 1007.72 1007.61 1007.58 1007.63 1007.75
1022.39 1022.31 1022.17 1021.98 1021.74 1021.49 1021.23 1020.99 1020.77 1020.59 1020.43 1020.28 1020.12 1019.91 1019.63 1019.26 1018.78 1018.19 1017.49 1016.69 1015.82 1014.91 1013.98 1013.06 1012.19 1011.37 1010.63 1009.96 1009.38 1008.89 1008.48 1008.15 1007.90 1007.73 1007.63 1007.61 1007.65 1007.75
1021.76 1021.68 1021.54 1021.37 1021.16 1020.94 1020.73 1020.54 1020.38 1020.25 1020.15 1020.04 1019.92 1019.75 1019.50 1019.14 1018.67 1018.09 1017.39 1016.60 1015.73 1014.83 1013.92 1013.02 1012.18 1011.40 1010.70 1010.08 1009.55 1009.10 1008.73 1008.43 1008.21 1008.04 1007.94 1007.91 1007.92 1007.99
1021.13 1021.04 1020.92 1020.76 1020.58 1020.40 1020.23 1020.09 1019.98 1019.90 1019.84 1019.78 1019.70 1019.56 1019.34 1019.02 1018.59 1018.03 1017.37 1016.61 1015.79 1014.93 1014.07 1013.23 1012.44 1011.72 1011.08 1010.52 1010.05 1009.65 1009.32 1009.05 1008.84 1008.67 1008.55 1008.48 1008.45 1008.46
1020.51 1020.42 1020.30 1020.15 1020.00 1019.84 1019.71 1019.61 1019.54 1019.50 1019.48 1019.46 1019.42 1019.32 1019.14 1018.86 1018.47 1017.98 1017.38 1016.69 1015.94 1015.17 1014.39 1013.64 1012.94 1012.30 1011.74 1011.25 1010.84 1010.49 1010.20 1009.95 1009.74 1009.56 1009.41 1009.29 1009.21 1009.15
Thickness
5581 5581 5581 5581 5581 5580 5579 5578 5576 5573 5574 5575 5574 5576 5576 5575 5575 5574 5573 5572 5572 5572 5571 5571 5570 5570 5569 5567 5566 5565 5564 5563 5562 5561 5560 5559 5558 5556
5571 5571 5571 5570 5569 5568 5567 5567 5567 5566 5564 5566 5565 5565 5565 5565 5564 5564 5563 5562 5562 5562 5561 5561 5560 5559 5558 5557 5556 5555 5553 5552 5551 5550 5549 5548 5547 5545
5561 5560 5560 5560 5558 5557 5556 5555 5555 5556 5554 5555 5554 5554 5553 5553 5553 5553 5552 5552 5551 5551 5550 5550 5549 5548 5547 5546 5545 5543 5542 5541 5539 5538 5537 5537 5535 5534
5550 5549 5548 5547 5546 5545 5544 5543 5544 5544 5544 5544 5543 5542 5542 5542 5542 5542 5541 5541 5540 5540 5539 5538 5537 5536 5535 5534 5532 5531 5530 5529 5528 5526 5526 5525 5524 5522
5538 5537 5536 5536 5534 5533 5532 5532 5531 5532 5532 5531 5532 5531 5530 5530 5529 5529 5529 5529 5528 5527 5527 5526 5524 5523 5522 5521 5520 5519 5517 5516 5515 5514 5513 5512 5511 5509
5526 5525 5525 5524 5523 5522 5521 5520 5519 5519 5518 5517 5517 5517 5517 5516 5515 5515 5515 5515 5515 5514 5513 5512 5511 5510 5508 5507 5506 5505 5504 5503 5502 5501 5500 5499 5498 5497
5512 5512 5512 5512 5511 5510 5509 5508 5507 5505 5504 5503 5503 5503 5502 5501 5500 5500 5500 5501 5501 5500 5499 5499 5498 5497 5495 5494 5493 5492 5491 5490 5489 5489 5488 5487 5486 5485
5499 5499 5498 5498 5497 5497 5495 5495 5495 5493 5491 5490 5490 5490 5490 5489 5488 5486 5484 5484 5485 5487 5484 5484 5483 5482 5482 5480 5479 5478 5478 5477 5476 5476 5475 5474 5473 5472
5485 5484 5484 5484 5483 5482 5481 5481 5480 5479 5478 5477 5477 5477 5477 5477 5474 5472 5470 5469 5471 5472 5468 5470 5469 5468 5468 5467 5466 5465 5464 5463 5462 5462 5461 5460 5460 5459
5471 5470 5470 5469 5469 5467 5466 5466 5467 5466 5466 5465 5465 5465 5464 5462 5460 5458 5456 5455 5456 5457 5455 5454 5456 5455 5456 5455 5453 5452 5450 5449 5448 5448 5448 5447 5447 5447
5458 5457 5456 5456 5456 5454 5452 5452 5452 5452 5451 5451 5451 5451 5450 5448 5446 5443 5441 5439 5441 5443 5441 5439 5440 5440 5441 5442 5440 5438 5436 5435 5435 5434 5435 5435 5435 5435
5444 5443 5443 5442 5442 5439 5437 5437 5437 5437 5437 5437 5437 5437 5436 5434 5432 5430 5428 5426 5426 5428 5429 5425 5424 5422 5424 5428 5427 5425 5424 5423 5422 5422 5422 5422 5422 5422
5430 5430 5430 5429 5428 5427 5425 5423 5423 5423 5423 5423 5423 5423 5422 5422 5420 5419 5417 5415 5414 5415 5416 5412 5411 5409 5407 5411 5414 5413 5411 5411 5410 5410 5410 5410 5410 5409
5417 5417 5416 5416 5415 5414 5412 5411 5410 5409 5409 5409 5409 5409 5408 5408 5408 5407 5406 5404 5404 5404 5404 5400 5398 5397 5396 5397 5400 5401 5400 5399 5398 5399 5398 5398 5398 5398
5404 5404 5403 5402 5401 5400 5399 5398 5397 5396 5395 5395 5396 5396 5396 5395 5395 5394 5393 5392 5392 5392 5391 5389 5388 5387 5385 5386 5387 5388 5387 5388 5387 5387 5387 5387 5387 5387
5390 5390 5389 5388 5386 5386 5386 5386 5385 5384 5383 5383 5383 5383 5382 5382 5381 5381 5380 5380 5380 5381 5380 5378 5377 5377 5376 5376 5376 5377 5376 5376 5377 5376 5376 5377 5376 5376
5377 5376 5374 5373 5372 5372 5372 5372 5372 5371 5370 5370 5370 5370 5370 5370 5370 5369 5368 5367 5367 5368 5369 5368 5367 5366 5366 5366 5366 5367 5367 5366 5366 5365 5364 5366 5367 5367
5364 5362 5362 5361 5360 5360 5360 5360 5360 5360 5360 5359 5359 5358 5358 5358 5358 5357 5356 5356 5357 5357 5357 5357 5357 5356 5356 5357 5358 5357 5357 5356 5356 5355 5354 5355 5358 5359
5351 5350 5350 5350 5349 5349 5349 5349 5349 5349 5349 5348 5348 5347 5347 5346 5346 5346 5346 5346 5346 5347 5347 5347 5346 5345 5347 5351 5352 5349 5347 5347 5346 5345 5345 5346 5348 5351
5339 5339 5339 5339 5339 5339 5339 5339 5339 5339 5338 5337 5337 5336 5336 5335 5335 5336 5336 5336 5337 5337 5338 5338 5337 5336 5338 5340 5340 5341 5338 5337 5337 5337 5338 5339 5340 5343
5329 5329 5329 5329 5329 5329 5330 5330 5329 5329 5328 5327 5327 5326 5326 5325 5325 5326 5326 5327 5327 5328 5329 5330 5329 5328 5327 5327 5329 5332 5331 5330 5330 5329 5330 5331 5333 5335
5321 5321 5321 5320 5320 5321 5321 5320 5320 5319 5318 5318 5317 5317 5317 5316 5317 5317 5317 5317 5318 5319 5320 5320 5319 5318 5317 5318 5321 5322 5323 5323 5323 5323 5323 5325 5325 5327
5313 5313 5312 5312 5312 5312 5312 5311 5311 5310 5310 5309 5309 5308 5308 5308 5308 5308 5308 5308 5308 5309 5309 5310 5310 5310 5310 5311 5312 5312 5313 5315 5315 5317 5318 5320 5321 5323